This demonstration page uses our WeatherBlox Daily Observations layout. Learn more.

Left ArrowRight Arrow

38.88101, -77.10428

Hourly Observations for May 25, 2021

Temp ( °F °C ) Dew Point ( °F °C ) Humidity (%) Winds ( mph kmh ) Pressure ( in mb ) Visibility ( mi km ) Precip ( " mm )
12:52 am 00:52 Cloudy 59 15 54 12.2 83 83 E 8 13 30.31 1026 10 16 N/A
1:52 am 01:52 Cloudy 59 15 53 11.7 81 81 E 6 9 30.30 1026 10 16 N/A
2:52 am 02:52 Cloudy 59 15 52 11.1 78 78 ESE 6 9 30.28 1026 10 16 N/A
3:52 am 03:52 Cloudy 59 15 52 11.1 78 78 ESE 3 6 30.27 1025 10 16 N/A
4:52 am 04:52 Cloudy 59 15 52 11.1 78 78 SSE 3 6 30.27 1025 10 16 N/A
5:41 am 05:41 Cloudy 59 15 52 11.1 78 78 ESE 5 7 30.28 1025 10 16 N/A
5:52 am 05:52 Cloudy 59 15 52 11.1 78 78 SE 3 6 30.28 1025 10 16 N/A
6:52 am 06:52 Cloudy 60 15.6 53 11.7 78 78 SSE 5 7 30.30 1026 10 16 N/A
7:52 am 07:52 Cloudy 61 16.1 54 12.2 78 78 SE 6 9 30.30 1026 10 16 N/A
8:52 am 08:52 Cloudy 62 16.7 54 12.2 75 75 S 7 11 30.30 1026 10 16 N/A
9:23 am 09:23 Cloudy 63 17.2 55 12.8 76 76 SSE 5 7 30.30 1026 10 16 N/A
9:52 am 09:52 Cloudy 64 17.8 56 13.3 75 75 S 8 13 30.29 1026 10 16 N/A
10:04 am 10:04 Cloudy 64 17.8 56 13.3 75 75 S 9 15 30.30 1026 10 16 N/A
10:52 am 10:52 Cloudy 65 18.3 56 13.3 73 73 S 9 15 30.29 1026 10 16 N/A
11:24 am 11:24 Cloudy 67 19.4 57 13.9 71 71 SSE 9 15 30.29 1026 10 16 N/A
11:45 am 11:45 Cloudy 68 20 58 14.4 70 70 SSE 10 17 30.29 1026 10 16 N/A
11:52 am 11:52 Cloudy 68 20 58 14.4 70 70 SSE 10 17 30.28 1025 10 16 N/A
12:52 pm 12:52 Mostly Cloudy 70 21.1 59 15 68 68 S 10 17 30.27 1025 10 16 N/A
1:49 pm 13:49 Mostly Cloudy 73 23 61 16 65 65 S 10 17 30.25 1024 10 16 N/A
1:52 pm 13:52 Mostly Cloudy 73 22.8 60 15.6 64 64 S 9 15 30.24 1024 10 16 N/A
2:52 pm 14:52 Partly Cloudy 74 23.3 60 15.6 62 62 S 9 15 30.22 1023 10 16 N/A
3:52 pm 15:52 Mostly Cloudy 76 24.4 61 16.1 60 60 S 12 19 30.19 1022 10 16 N/A
4:52 pm 16:52 Mostly Cloudy 78 25.6 62 16.7 58 58 S 10 17 30.17 1022 10 16 N/A
5:52 pm 17:52 Mostly Cloudy 78 25.6 63 17.2 60 60 S 10 17 30.16 1021 10 16 N/A
6:52 pm 18:52 Mostly Cloudy 77 25 64 17.8 64 64 S 10 17 30.15 1021 10 16 N/A
7:52 pm 19:52 Mostly Cloudy 75 23.9 64 17.8 69 69 S 12 19 30.15 1021 10 16 N/A
8:52 pm 20:52 Mostly Cloudy 73 22.8 64 17.8 74 74 SSE 8 13 30.15 1021 10 16 N/A
9:52 pm 21:52 Partly Cloudy 72 22.2 64 17.8 76 76 SSE 7 11 30.16 1021 10 16 N/A
10:52 pm 22:52 Partly Cloudy 70 21.1 63 17.2 79 79 SSE 7 11 30.16 1021 10 16 N/A
11:52 pm 23:52 Mostly Cloudy 70 21.1 63 17.2 79 79 SSE 7 11 30.16 1021 10 16 N/A

Powered by AerisWeather